EW9362 Weather Reports


Display with metric or nautical units.
time (UTC)temp
F
wind
direction
speed
MPH
gust
MPH
rain 1hr
in
rain 24hr
in
rain mn
in
humidity
%
barometer
mb
20260506045030 58 0 0.0 8.0 0.11 0.33 0.09 91 1006.5
20260506044550 58 360 2.0 9.0 0.10 0.32 0.08 91 1006.5
20260506044031 58 34 5.0 9.0 0.07 0.29 0.05 91 1006.7
20260506043534 58 10 4.0 6.0 0.03 0.25 0.01 91 1006.5
20260506043046 58 347 1.0 2.0 0.03 0.25 0.01 90 1006.0
20260506042531 58 0 0.0 1.0 0.03 0.25 0.01 90 1005.8
20260506042030 58 82 0.0 1.0 0.03 0.25 0.01 90 1005.8
20260506041549 58 0 0.0 1.0 0.04 0.25 0.01 90 1005.8
20260506041032 58 0 0.0 1.0 0.03 0.24 0.00 90 1005.9
20260506040531 58 0 0.0 4.0 0.03 0.24 0.00 90 1005.9
20260506040059 58 0 1.0 4.0 0.03 0.24 0.00 90 1006.0
20260506035529 58 0 1.0 5.0 0.04 0.23 0.23 90 1006.0
20260506035031 58 158 1.0 6.0 0.03 0.22 0.22 90 1006.0
20260506034548 58 147 2.0 6.0 0.04 0.22 0.22 90 1006.1
20260506034032 58 165 1.0 5.0 0.04 0.22 0.22 90 1006.3
20260506033531 59 152 1.0 5.0 0.05 0.22 0.22 90 1006.4
20260506033044 59 0 0.0 5.0 0.05 0.22 0.22 90 1006.5
20260506032530 59 213 1.0 8.0 0.06 0.22 0.22 90 1006.5
20260506032033 59 203 1.0 8.0 0.06 0.22 0.22 90 1006.5
20260506031557 59 176 2.0 8.0 0.05 0.21 0.21 90 1006.8
20260506031031 59 0 1.0 6.0 0.05 0.21 0.21 90 1006.8
20260506030530 59 194 1.0 4.0 0.05 0.21 0.21 90 1007.0
20260506030044 59 0 0.0 7.0 0.05 0.21 0.21 90 1007.1
20260506025531 59 0 0.0 7.0 0.03 0.19 0.19 90 1007.2
20260506025030 59 217 1.0 7.0 0.03 0.19 0.19 89 1007.2
20260506024546 59 0 1.0 9.0 0.02 0.18 0.18 89 1007.3
20260506024032 59 126 1.0 9.0 0.01 0.17 0.17 89 1007.3
20260506023531 60 66 1.0 9.0 0.01 0.17 0.17 89 1007.3
20260506023042 60 193 0.0 5.0 0.00 0.16 0.16 89 1007.3
20260506022529 60 114 1.0 7.0 0.00 0.16 0.16 88 1007.3
20260506022031 60 0 1.0 7.0 0.00 0.16 0.16 88 1007.3
20260506021543 60 321 0.0 1.0 0.00 0.16 0.16 88 1007.4
20260506021033 60 0 0.0 1.0 0.00 0.16 0.16 88 1007.4
20260506020534 60 0 0.0 1.0 0.00 0.16 0.16 89 1007.3
20260506020045 60 109 0.0 1.0 0.00 0.16 0.16 89 1007.2
20260506015530 60 0 0.0 1.0 0.00 0.16 0.16 89 1007.1
20260506015032 60 0 0.0 1.0 0.00 0.16 0.16 89 1007.2
20260506014544 60 0 0.0 1.0 0.00 0.16 0.16 89 1007.1
20260506014030 60 0 0.0 2.0 0.00 0.16 0.16 89 1007.0
20260506013528 60 0 0.0 2.0 0.00 0.16 0.16 89 1006.9
20260506013045 60 172 0.0 2.0 0.00 0.16 0.16 89 1006.7
20260506012530 60 156 0.0 2.0 0.00 0.16 0.16 89 1006.4
20260506012035 60 0 0.0 0.0 0.00 0.16 0.16 89 1006.8
20260506011542 60 0 0.0 0.0 0.00 0.16 0.16 89 1006.8
20260506011028 60 0 0.0 0.0 0.00 0.16 0.16 89 1006.6
20260506010528 60 0 0.0 0.0 0.00 0.16 0.16 89 1006.5
20260506010051 60 0 0.0 0.0 0.00 0.16 0.16 89 1006.3
20260506005531 60 0 0.0 1.0 0.00 0.16 0.16 89 1006.3
20260506005030 60 0 0.0 1.0 0.01 0.16 0.16 89 1006.3
20260506004548 60 0 0.0 0.0 0.01 0.16 0.16 89 1006.4
20260506004032 61 0 0.0 0.0 0.02 0.16 0.16 89 1006.5
20260506003528 61 0 0.0 0.0 0.02 0.16 0.16 89 1006.3
20260506003045 61 0 0.0 0.0 0.04 0.16 0.16 89 1006.4
20260506002529 61 0 0.0 0.0 0.05 0.16 0.16 89 1006.6
20260506002028 61 0 0.0 0.0 0.05 0.16 0.16 89 1006.5
20260506001544 61 0 0.0 0.0 0.05 0.16 0.16 88 1006.7
20260506001032 61 0 0.0 0.0 0.05 0.16 0.16 88 1006.7
20260506000532 61 0 0.0 0.0 0.05 0.16 0.16 88 1006.6
20260506000047 61 0 0.0 1.0 0.05 0.16 0.16 88 1006.5
20260505235528 61 0 0.0 2.0 0.05 0.16 0.16 87 1006.6
20260505235028 61 0 0.0 3.0 0.04 0.15 0.15 87 1006.5
20260505234550 61 200 0.0 3.0 0.05 0.15 0.15 87 1006.4
20260505234029 61 0 0.0 3.0 0.05 0.14 0.14 88 1006.8
20260505233528 61 0 0.0 2.0 0.05 0.14 0.14 89 1006.7
20260505233050 62 0 0.0 1.0 0.03 0.12 0.12 89 1006.8
20260505232531 62 0 0.0 1.0 0.03 0.11 0.11 89 1006.9
20260505232029 62 0 0.0 0.0 0.04 0.11 0.11 89 1007.2
20260505231552 62 0 0.0 2.0 0.06 0.11 0.11 89 1007.1
20260505231028 62 0 0.0 2.0 0.06 0.11 0.11 88 1006.9
20260505230528 62 167 0.0 2.0 0.07 0.11 0.11 88 1006.7
20260505230044 62 161 0.0 3.0 0.07 0.11 0.11 88 1006.8
20260505225530 62 0 0.0 3.0 0.07 0.11 0.11 88 1007.1
20260505225030 62 15 1.0 2.0 0.06 0.10 0.10 88 1007.4
20260505224544 62 0 0.0 1.0 0.06 0.10 0.10 87 1006.7
20260505224032 63 0 0.0 0.0 0.05 0.09 0.09 86 1007.4
20260505223532 63 0 0.0 5.0 0.05 0.09 0.09 85 1007.4
20260505223052 63 0 0.0 5.0 0.05 0.09 0.09 84 1007.3
20260505222532 64 0 0.0 1.0 0.04 0.08 0.08 85 1007.4
20260505222029 64 0 0.0 2.0 0.03 0.07 0.07 83 1007.3
20260505221546 65 191 0.0 7.0 0.01 0.05 0.05 80 1007.6
20260505221027 66 0 1.0 7.0 0.01 0.05 0.05 77 1007.1
20260505220531 66 170 0.0 4.0 0.00 0.04 0.04 80 1007.0
20260505220044 66 170 2.0 6.0 0.00 0.04 0.04 76 1006.9
20260505215528 66 173 2.0 6.0 0.00 0.04 0.04 78 1006.8
20260505215031 66 169 2.0 6.0 0.00 0.04 0.04 77 1006.9
20260505214549 66 0 0.0 2.0 0.00 0.04 0.04 81 1006.9
20260505214029 65 167 0.0 3.0 0.00 0.04 0.04 81 1007.0
20260505213528 65 0 0.0 3.0 0.00 0.04 0.04 81 1007.1
20260505213042 65 164 0.0 2.0 0.00 0.04 0.04 82 1007.1
20260505212531 65 0 0.0 3.0 0.00 0.04 0.04 83 1007.2
20260505212031 65 0 0.0 3.0 0.00 0.04 0.04 84 1007.3
20260505211547 65 0 0.0 0.0 0.00 0.04 0.04 84 1007.5
20260505211029 65 0 0.0 1.0 0.00 0.04 0.04 84 1007.5
20260505210530 65 0 0.0 1.0 0.00 0.04 0.04 85 1007.5
20260505210045 65 0 0.0 1.0 0.00 0.04 0.04 84 1007.5
20260505205533 65 148 0.0 0.0 0.00 0.04 0.04 84 1007.6
20260505205028 65 0 0.0 0.0 0.00 0.04 0.04 85 1007.7
20260505204546 65 0 0.0 0.0 0.00 0.04 0.04 85 1007.8
20260505204029 65 0 0.0 2.0 0.00 0.04 0.04 85 1007.9
20260505203528 65 0 0.0 2.0 0.00 0.04 0.04 85 1008.1
20260505203047 65 0 0.0 0.0 0.00 0.04 0.04 85 1008.1
20260505202529 65 0 0.0 0.0 0.00 0.04 0.04 86 1008.2
20260505202033 64 0 0.0 0.0 0.00 0.04 0.04 86 1008.3
20260505201553 64 0 0.0 0.0 0.01 0.04 0.04 86 1008.2
20260505201028 64 0 0.0 0.0 0.01 0.04 0.04 86 1008.3
20260505200531 64 0 0.0 0.0 0.01 0.04 0.04 86 1008.5
20260505200049 64 0 0.0 0.0 0.02 0.04 0.04 86 1008.5
20260505195534 64 0 0.0 0.0 0.03 0.04 0.04 86 1008.6
20260505195027 64 0 0.0 0.0 0.03 0.04 0.04 86 1008.6
20260505194551 64 0 0.0 0.0 0.04 0.04 0.04 86 1008.8
20260505194031 63 0 0.0 0.0 0.04 0.04 0.04 86 1008.7
20260505193530 64 0 0.0 1.0 0.04 0.04 0.04 86 1008.8
20260505193042 63 0 0.0 1.0 0.04 0.04 0.04 86 1008.9
20260505192533 64 0 0.0 3.0 0.04 0.04 0.04 86 1009.1
20260505192028 64 0 0.0 3.0 0.04 0.04 0.04 86 1009.0
20260505191542 64 0 0.0 3.0 0.03 0.03 0.03 85 1009.1
20260505191028 64 0 0.0 1.0 0.03 0.03 0.03 85 1009.1
20260505190532 64 0 0.0 1.0 0.03 0.03 0.03 85 1009.2
20260505190043 65 0 0.0 1.0 0.02 0.02 0.02 83 1009.2
20260505185528 66 43 0.0 1.0 0.01 0.01 0.01 81 1009.2
20260505185032 66 0 0.0 2.0 0.01 0.01 0.01 78 1009.1
20260505184546 67 0 0.0 2.0 0.00 0.00 0.00 75 1009.1
20260505184031 67 0 0.0 6.0 0.00 0.00 0.00 74 1009.2
20260505183530 68 0 0.0 6.0 0.00 0.00 0.00 72 1009.1
20260505183045 68 0 0.0 6.0 0.00 0.00 0.00 71 1009.2
20260505182528 68 0 0.0 7.0 0.00 0.00 0.00 69 1009.4
20260505182028 68 198 1.0 7.0 0.00 0.00 0.00 69 1009.5
20260505181552 69 146 0.0 1.0 0.00 0.00 0.00 68 1009.3
20260505181029 69 79 0.0 5.0 0.00 0.00 0.00 69 1009.2
20260505180528 69 54 0.0 5.0 0.00 0.00 0.00 68 1009.3
20260505180045 69 141 0.0 14.0 0.00 0.00 0.00 68 1009.3
20260505175528 69 250 1.0 14.0 0.00 0.00 0.00 66 1009.2
20260505175028 70 155 3.0 14.0 0.00 0.00 0.00 67 1009.2
20260505174554 70 191 2.0 16.0 0.00 0.00 0.00 66 1009.1
20260505174031 70 149 6.0 17.0 0.00 0.00 0.00 65 1009.2
20260505173530 71 219 7.0 17.0 0.00 0.00 0.00 64 1009.2
20260505173046 72 200 4.0 17.0 0.00 0.00 0.00 64 1009.1
20260505172528 71 166 5.0 17.0 0.00 0.00 0.00 64 1009.2
20260505172030 70 119 2.0 13.0 0.00 0.00 0.00 66 1009.4
20260505171544 69 229 4.0 13.0 0.00 0.00 0.00 67 1009.4
20260505171034 69 217 4.0 11.0 0.00 0.00 0.00 67 1009.6
20260505170530 69 64 1.0 14.0 0.00 0.00 0.00 68 1009.7
20260505170042 68 108 2.0 14.0 0.00 0.00 0.00 67 1009.5
20260505165527 68 195 5.0 14.0 0.00 0.00 0.00 67 1009.5
20260505165031 68 221 1.0 12.0 0.00 0.00 0.00 67 1009.6
20260505164610 68 238 4.0 12.0 0.00 0.00 0.00 68 1009.7
20260505164033 68 203 4.0 12.0 0.00 0.00 0.00 67 1009.9
20260505163529 68 0 3.0 15.0 0.00 0.00 0.00 67 1009.9
20260505163052 68 0 4.0 15.0 0.00 0.00 0.00 66 1009.8
20260505162530 68 249 1.0 11.0 0.00 0.00 0.00 67 1009.8
20260505162030 68 212 4.0 18.0 0.00 0.00 0.00 67 1009.9
20260505161544 68 210 3.0 18.0 0.00 0.00 0.00 66 1009.9
20260505161029 68 191 6.0 18.0 0.00 0.00 0.00 66 1010.0
20260505160528 68 199 2.0 13.0 0.00 0.00 0.00 66 1009.9
20260505153046 66 240 2.0 11.0 0.00 0.00 0.00 68 1010.1
20260505152527 66 229 3.0 11.0 0.00 0.00 0.00 68 1010.0
20260505152029 66 248 1.0 13.0 0.00 0.00 0.00 67 1010.0
20260505151547 65 189 4.0 13.0 0.00 0.00 0.00 68 1010.1
20260505151027 66 221 2.0 11.0 0.00 0.00 0.00 68 1009.9
20260505150527 65 201 3.0 11.0 0.00 0.00 0.00 68 1009.9
20260505140531 64 175 4.0 11.0 0.00 0.00 0.00 69 1009.7
20260505130106 62 233 2.0 5.0 0.00 0.00 0.00 72 1009.8
20260505125028 62 168 1.0 5.0 0.00 0.09 0.00 71 1009.9
20260505124552 62 153 1.0 3.0 0.00 0.09 0.00 72 1010.0
20260505124028 62 0 0.0 1.0 0.00 0.09 0.00 72 1010.2
20260505123532 61 0 0.0 0.0 0.00 0.09 0.00 73 1010.2
20260505123046 61 0 0.0 0.0 0.00 0.09 0.00 75 1010.3
20260505122527 61 0 0.0 2.0 0.00 0.09 0.00 74 1010.3
20260505122031 61 0 0.0 2.0 0.00 0.09 0.00 75 1010.3
20260505121540 61 0 0.0 1.0 0.00 0.09 0.00 76 1010.3
20260505121028 61 0 0.0 3.0 0.00 0.09 0.00 74 1010.2
20260505120531 61 0 0.0 3.0 0.00 0.09 0.00 74 1010.2
20260505115527 61 0 0.0 2.0 0.00 0.15 0.00 74 1010.0
20260505115028 61 140 0.0 3.0 0.00 0.15 0.00 74 1009.9
20260505114544 61 143 0.0 4.0 0.00 0.15 0.00 74 1009.8
20260505114027 61 173 1.0 4.0 0.00 0.15 0.00 74 1009.7
20260505113528 61 136 0.0 4.0 0.00 0.15 0.00 73 1009.7
20260505113049 61 0 0.0 4.0 0.00 0.15 0.00 74 1009.7
20260505112528 61 0 0.0 1.0 0.00 0.15 0.00 74 1009.7
20260505112030 61 0 0.0 1.0 0.00 0.15 0.00 75 1009.8
20260505111541 61 0 0.0 1.0 0.00 0.15 0.00 74 1009.9
20260505111028 61 0 0.0 1.0 0.00 0.15 0.00 75 1009.9
20260505110528 61 0 0.0 1.0 0.00 0.15 0.00 74 1010.0
20260505102031 62 0 0.0 9.0 0.00 0.15 0.00 68 1010.1
20260505101546 62 0 2.0 9.0 0.00 0.15 0.00 67 1010.2
20260505101030 62 5 5.0 9.0 0.00 0.15 0.00 67 1010.3
20260505100529 62 53 0.0 1.0 0.00 0.15 0.00 67 1009.7
20260505100047 62 0 0.0 1.0 0.00 0.15 0.00 67 1009.5
20260505095528 62 0 0.0 8.0 0.00 0.17 0.00 66 1009.5
20260505095027 62 115 0.0 8.0 0.00 0.17 0.00 66 1009.1
20260505094544 62 0 1.0 8.0 0.00 0.17 0.00 66 1008.9
20260505094028 62 184 1.0 5.0 0.00 0.17 0.00 66 1008.8
20260505093527 62 173 1.0 6.0 0.00 0.17 0.00 66 1008.8
20260505093044 62 0 1.0 6.0 0.00 0.17 0.00 66 1008.9
20260505092532 62 0 0.0 5.0 0.00 0.17 0.00 66 1008.9
20260505092029 62 0 1.0 5.0 0.00 0.17 0.00 65 1008.8
20260505091546 62 0 0.0 6.0 0.00 0.17 0.00 65 1008.9
20260505091031 62 244 1.0 8.0 0.00 0.17 0.00 65 1008.6
20260505090527 63 0 2.0 8.0 0.00 0.17 0.00 64 1008.5
20260505090045 63 223 3.0 9.0 0.00 0.17 0.00 64 1008.3
20260505085534 63 193 2.0 9.0 0.00 0.17 0.00 64 1008.4
20260505085029 63 227 3.0 9.0 0.00 0.17 0.00 64 1008.4
20260505084544 63 0 3.0 9.0 0.00 0.17 0.00 64 1008.4
20260505084028 63 0 2.0 10.0 0.00 0.17 0.00 64 1008.4
20260505083528 63 225 2.0 10.0 0.00 0.17 0.00 64 1008.5
20260505083042 63 201 1.0 10.0 0.00 0.17 0.00 63 1008.4
20260505082528 63 220 1.0 5.0 0.00 0.17 0.00 63 1008.4
20260505082029 63 167 1.0 7.0 0.00 0.17 0.00 63 1008.3
20260505081552 63 0 1.0 9.0 0.00 0.17 0.00 63 1008.1
20260505081028 63 273 1.0 9.0 0.00 0.17 0.00 63 1008.1
20260505080527 64 226 0.0 6.0 0.00 0.17 0.00 63 1008.2
20260505080049 64 166 0.0 6.0 0.00 0.17 0.00 62 1008.2
20260505075527 64 188 1.0 9.0 0.00 0.17 0.00 62 1008.1
20260505075029 64 146 0.0 9.0 0.00 0.17 0.00 62 1008.1
20260505074544 64 200 2.0 9.0 0.00 0.17 0.00 62 1008.1
20260505074027 64 165 1.0 7.0 0.00 0.17 0.00 62 1008.0
20260505073531 64 0 1.0 7.0 0.00 0.17 0.00 62 1008.0
20260505073049 64 183 2.0 7.0 0.00 0.17 0.00 61 1008.0
20260505072527 64 0 1.0 6.0 0.00 0.17 0.00 62 1007.9
20260505072028 64 237 0.0 5.0 0.00 0.17 0.00 61 1008.0
20260505071550 64 0 1.0 7.0 0.00 0.17 0.00 61 1007.9
20260505071027 65 259 2.0 7.0 0.00 0.17 0.00 61 1007.9
20260505070531 65 0 1.0 6.0 0.00 0.17 0.00 60 1007.9
20260505070056 65 0 1.0 6.0 0.00 0.17 0.00 60 1007.9
20260505065531 65 0 1.0 7.0 0.00 0.17 0.00 60 1008.0
20260505065029 65 0 3.0 7.0 0.00 0.17 0.00 59 1008.0
20260505064546 65 0 0.0 6.0 0.00 0.17 0.00 59 1008.0
20260505064027 66 174 1.0 8.0 0.00 0.17 0.00 59 1008.1
20260505063529 66 157 1.0 8.0 0.00 0.17 0.00 59 1008.0
20260505063044 66 230 2.0 12.0 0.00 0.17 0.00 59 1007.9
20260505062528 66 134 3.0 12.0 0.00 0.17 0.00 58 1007.9
20260505062028 66 238 3.0 12.0 0.00 0.17 0.00 58 1007.9
20260505061542 66 0 2.0 10.0 0.00 0.17 0.00 58 1007.8
20260505061030 66 184 3.0 10.0 0.00 0.17 0.00 58 1007.8
20260505060531 66 217 2.0 7.0 0.00 0.17 0.00 59 1007.8
20260505060050 66 212 2.0 10.0 0.00 0.17 0.00 59 1007.9
20260505055533 66 184 2.0 10.0 0.00 0.17 0.00 58 1008.0
20260505055028 66 0 3.0 10.0 0.00 0.17 0.00 58 1008.0
20260505054554 66 159 4.0 10.0 0.00 0.17 0.00 58 1007.9
20260505054028 66 180 3.0 8.0 0.00 0.17 0.00 58 1007.8
20260505053527 66 205 3.0 8.0 0.00 0.17 0.00 58 1007.8
20260505053057 66 176 2.0 9.0 0.00 0.17 0.00 57 1007.9
20260505052527 66 215 2.0 9.0 0.00 0.17 0.00 57 1007.7
20260505052027 66 243 3.0 11.0 0.00 0.17 0.00 57 1007.6
20260505051545 67 242 4.0 11.0 0.00 0.17 0.00 57 1007.6
20260505051027 67 179 3.0 11.0 0.00 0.17 0.00 57 1007.7
20260505050533 67 167 5.0 11.0 0.00 0.17 0.00 57 1007.8